Tracking 22881 objects as of 20-Apr-2021
HD Live streaming from Space Station
objects crossing your sky now

STARLINK-2042

Track STARLINK-2042 now!
10-day predictions
STARLINK-2042 is classified as:


NORAD ID: 47658
Int'l Code: 2021-012AQ
Perigee: 553.4 km
Apogee: 555.4 km
Inclination: 53.1 °
Period: 95.6 minutes
Semi major axis: 6925 km
RCS: Unknown
Launch date: February 16, 2021
Source: United States (US)
Launch site: AIR FORCE EASTERN TEST RANGE (AFETR)
aabbcc
Your satellite tracking list
Your tracking list is empty




NASA's NSSDC Master Catalog

Two Line Element Set (TLE):
1 47658U 21012AQ  21109.91667824  .00006331  00000-0  44371-3 0  9997
2 47658  53.0547 163.7656 0001481  75.2989  30.9027 15.06385820  1756
Source of the keplerian elements: AFSPC